DW4221 Weather Reports


time (UTC)temp
F
wind
direction
speed
knots
gust
knots
rain 1hr
in
rain 24hr
in
rain mn
in
humidity
%
barometer
mb
20260903174558 78 115 2.6 7.0 0.00 0.00 0.00 59 1014.0
20260903173110 77 120 4.3 9.6 0.00 0.00 0.00 61 1014.0
20260903171604 77 69 5.2 11.3 0.00 0.00 0.00 60 1014.0
20260903170109 76 113 3.5 9.6 0.00 0.00 0.00 63 1014.3
20260903164608 76 144 4.3 11.3 0.00 0.00 0.00 62 1014.6
20260903163105 75 153 3.5 8.7 0.00 0.00 0.00 64 1014.6
20260903161554 74 98 3.5 9.6 0.00 0.00 0.00 66 1014.8
20260903160110 74 156 3.5 10.4 0.00 0.00 0.00 67 1014.9
20260903154607 73 126 3.5 10.4 0.00 0.00 0.00 67 1015.1
20260903153107 73 0 2.6 8.7 0.00 0.00 0.00 68 1015.3
20260903151603 72 148 3.5 10.4 0.00 0.00 0.00 69 1015.3
20260903150105 71 91 2.6 9.6 0.00 0.00 0.00 72 1015.5
20260903144601 70 105 5.2 10.4 0.00 0.00 0.00 73 1015.7
20260903143105 69 106 1.7 7.0 0.00 0.00 0.00 75 1015.7
20260903141553 68 133 1.7 6.1 0.00 0.00 0.00 76 1015.7
20260903140105 67 133 1.7 7.0 0.00 0.00 0.00 77 1015.8
20260903134608 66 119 0.9 6.1 0.00 0.00 0.00 80 1015.8
20260903133107 64 123 0.0 4.3 0.00 0.00 0.00 82 1015.5
20260903131605 63 112 0.0 2.6 0.00 0.00 0.00 83 1015.4
20260903130128 61 100 0.0 3.5 0.00 0.00 0.00 89 1015.6
20260903124612 58 0 0.0 2.6 0.00 0.00 0.00 93 1015.7
20260903123103 57 0 0.0 2.6 0.00 0.00 0.00 94 1015.4
20260903121602 56 0 0.0 1.7 0.00 0.00 0.00 96 1015.4
20260903120113 55 0 0.0 1.7 0.00 0.00 0.00 96 1015.4
20260903114605 55 0 0.0 1.7 0.00 0.00 0.00 97 1015.3
20260903113105 55 0 0.0 0.0 0.00 0.00 0.00 97 1015.4
20260903111605 55 0 0.0 0.0 0.00 0.00 0.00 96 1015.5
20260903110055 55 0 0.0 0.0 0.00 0.00 0.00 96 1015.4
20260903104554 55 355 0.0 1.7 0.00 0.00 0.00 96 1015.2
20260903103106 55 0 0.0 0.0 0.00 0.00 0.00 96 1015.2
20260903101632 55 0 0.0 0.0 0.00 0.00 0.00 95 1015.3
20260903100056 56 0 0.0 0.0 0.00 0.00 0.00 96 1015.2
20260903094605 56 0 0.0 0.0 0.00 0.00 0.00 96 1015.1
20260903093105 56 0 0.0 0.9 0.00 0.00 0.00 96 1014.9
20260903091600 56 0 0.0 0.9 0.00 0.00 0.00 96 1014.8
20260903090108 56 0 0.0 1.7 0.00 0.00 0.00 96 1014.9
20260903084553 56 355 0.0 1.7 0.00 0.00 0.00 97 1014.8
20260903083059 56 0 0.0 0.9 0.00 0.00 0.00 97 1015.0
20260903081603 56 0 0.0 0.0 0.00 0.00 0.00 96 1015.2
20260903080051 56 0 0.0 0.9 0.00 0.00 0.00 96 1015.2
20260903074611 56 0 0.0 0.0 0.00 0.00 0.00 95 1015.2
20260903073130 56 0 0.0 0.9 0.00 0.00 0.00 96 1015.3
20260903071615 56 0 0.0 0.0 0.00 0.00 0.00 96 1015.2
20260903070053 56 0 0.0 1.7 0.00 0.00 0.00 97 1015.4
20260903064558 56 0 0.0 0.0 0.00 0.00 0.00 96 1015.5
20260903063057 55 0 0.0 0.0 0.00 0.00 0.00 95 1015.6
20260903061604 56 0 0.0 0.0 0.00 0.00 0.00 96 1015.6
20260903060144 56 0 0.0 0.0 0.00 0.00 0.00 94 1015.6
20260903054602 56 0 0.0 1.7 0.00 0.00 0.00 94 1015.5
20260903053104 58 0 0.0 0.0 0.00 0.00 0.00 93 1015.5
20260903051606 58 0 0.0 0.9 0.00 0.00 0.00 96 1015.4
20260903050107 57 0 0.9 1.7 0.00 0.00 0.00 95 1015.3
20260903044604 57 0 0.9 1.7 0.00 0.00 0.00 95 1015.5
20260903043105 57 0 0.0 0.0 0.00 0.00 0.00 93 1015.7
20260903041558 57 0 0.0 0.0 0.00 0.00 0.00 92 1015.6
20260903040112 58 0 0.0 0.0 0.00 0.00 0.00 92 1015.3
20260903034551 58 0 0.0 0.0 0.00 0.00 0.00 92 1015.3
20260903033102 59 0 0.0 0.0 0.00 0.00 0.00 92 1015.3
20260903031554 59 0 0.0 0.0 0.00 0.00 0.00 91 1015.2
20260903030055 60 0 0.0 0.0 0.00 0.00 0.00 89 1015.2
20260903024551 61 0 0.0 0.0 0.00 0.00 0.00 89 1015.1
20260903023109 61 0 0.0 0.0 0.00 0.00 0.00 87 1015.3
20260903021605 63 0 0.0 0.0 0.00 0.00 0.00 86 1015.2
20260903020055 63 0 0.0 0.0 0.00 0.00 0.00 85 1014.9
20260903014609 64 0 0.0 0.0 0.00 0.00 0.00 84 1014.8
20260903013107 65 0 0.0 0.0 0.00 0.00 0.00 82 1014.6
20260903011555 67 0 0.0 0.0 0.00 0.00 0.00 79 1014.5
20260903004603 69 0 0.0 0.0 0.00 0.00 0.00 73 1014.5
20260903003107 71 0 0.0 0.0 0.00 0.00 0.00 69 1014.6
20260903001625 73 0 0.0 3.5 0.00 0.00 0.00 65 1014.4
20260903000103 74 10 0.9 3.5 0.00 0.00 0.00 62 1014.4
20260902234626 75 0 0.0 4.3 0.00 0.00 0.00 60 1014.3
20260902233105 75 0 0.9 3.5 0.00 0.00 0.00 61 1014.3
20260902231614 75 0 0.9 3.5 0.00 0.00 0.00 61 1014.4
20260902230115 75 0 0.0 1.7 0.00 0.00 0.00 61 1014.3
20260902224551 75 0 0.0 2.6 0.00 0.00 0.00 62 1014.4
20260902223059 76 0 0.0 3.5 0.00 0.00 0.00 60 1014.2
20260902221555 76 355 0.0 4.3 0.00 0.00 0.00 57 1014.1
20260902220100 76 0 0.0 3.5 0.00 0.00 0.00 56 1014.0
20260902214613 76 5 0.9 7.8 0.00 0.00 0.00 55 1014.0
20260902213059 78 24 0.9 8.7 0.00 0.00 0.00 54 1014.0
20260902211606 78 20 1.7 5.2 0.00 0.00 0.00 54 1014.0
20260902210103 77 0 0.0 2.6 0.00 0.00 0.00 55 1014.0
20260902204554 78 0 0.0 4.3 0.00 0.00 0.00 53 1014.1
20260902203058 77 245 0.0 7.0 0.00 0.00 0.00 57 1014.1
20260902201554 77 0 0.9 8.7 0.00 0.00 0.00 55 1014.3
20260902194602 76 114 0.0 4.3 0.00 0.00 0.00 56 1014.4
20260902193058 77 346 2.6 7.8 0.00 0.00 0.00 54 1014.5
20260902191605 76 315 0.0 4.3 0.00 0.00 0.00 58 1014.5
20260902190106 76 0 0.9 6.1 0.00 0.00 0.00 59 1014.8
20260902184601 76 355 0.9 5.2 0.00 0.00 0.00 58 1014.8
20260902183059 76 45 1.7 6.1 0.00 0.00 0.00 57 1014.9
20260902181558 75 240 0.0 4.3 0.00 0.00 0.00 61 1015.0
20260902180103 75 258 0.9 7.0 0.00 0.00 0.00 61 1014.8